Starlink 11130

operational
NORAD ID: 59950 Int'l Des: 2024-107 Owner: SPXS Country: US Constellation: starlink
LEOCIRCULAR

Über Starlink 11130

Beschreibung wird geladen...

Live-Position

3D-Globus wird geladen...

Nächste Überflüge

Höhenverlauf

Altitude vs Time

uPlot chart will show altitude changes over time

Zweizeiliger Elementsatz

1 59950U 24107F 25354.10053774 -.00000267 00000-0 26573-5 0 9992
2 59950 53.1605 283.7523 0001278 87.8604 272.2561 15.69708462 89641
Epoch: 20. Dez. 2025 • Age: 13 hours

Aktueller Status

Höhe 379.1 km
Geschwindigkeit 7.68 km/s
Subsatellitenpunkt -53.15°S, 129.27°W
Startdatum 5. Juni 2024
Alter 1.5 years
Typ internet

Technische Details

Klassifizierung Payload
Masse 960.00 kg
Trockenmasse 910.00 kg
Gesamtmasse 960.00 kg
Länge 0.30 m
Durchmesser 4.10 m
Spannweite 29.00 m
Form Box + pan
Hersteller SPXS
Bus-Typ Starlink V2MD
Phasenstatus In Orbit
Besitzer/Staat SPXS/US

Große Konstellationen

Loading constellations...